Regional Weather Roundup
Issued by NWS

Home | Current Version | Previous Version | Graphics & Text | Print | Product List | Glossary On
Versions: 1 2 3 4 5 6 7 8 9 10 11 12 13 14 15 16 17 18 19 20 21 22 23 24 25 26 27 28 29 30 31 32 33 34 35 36 37 38 39 40 41 42 43 44 45 46 47 48 49 50
000
ASUS45 KPSR 180110
RWRAZ

ARIZONA REGIONAL HOURLY WEATHER ROUNDUP
NATIONAL WEATHER SERVICE PHOENIX AZ
600 PM MST WED DEC 17 2014

NOTE: FAIR INDICATES FEW OR NO CLOUDS BELOW 12,000 FEET WITH NO
SIGNIFICANT WEATHER AND/OR OBSTRUCTIONS TO VISIBILITY.

AZZ001>003-036-180200-
NORTHWEST ARIZONA

CITY           SKY/WX    TMP DP  RH WIND       PRES   REMARKS
BULLHEAD CITY  CLOUDY    55  48  76 CALM      30.08R
KINGMAN        CLOUDY    44  41  89 SW3       30.05S
$$

AZZ004>008-015-016-018-180200-
NORTH CENTRAL ARIZONA

CITY           SKY/WX    TMP DP  RH WIND       PRES   REMARKS
GRAND CANYON   LGT SNOW  33  31  92 W5        30.05R FOG     WCI  29
PRESCOTT       MOCLDY    38  32  79 S8        30.06S WCI  32
FLAGSTAFF      CLOUDY    31  29  92 SW5       30.05R WCI  26
PAYSON         CLOUDY    39  37  93 CALM      30.10R
PAGE           PTCLDY    40  35  83 E3        30.03R
$$

AZZ009>014-017-180200-
NORTHEAST ARIZONA

CITY           SKY/WX    TMP DP  RH WIND       PRES   REMARKS
WINSLOW        PTCLDY    39  32  76 SW9       30.05R WCI  33
SAINT JOHNS    MOCLDY    37  30  75 SW16      30.04R WCI  28
WINDOW ROCK    MOCLDY    35  27  72 W10       30.04R WCI  27
SHOW LOW       CLOUDY    32  28  86 SW13      30.08S WCI  22
$$

AZZ023-180200-
GREATER PHOENIX AREA

CITY           SKY/WX    TMP DP  RH WIND       PRES   REMARKS
PHOENIX        CLOUDY    59  44  57 NW8       30.07R
BUCKEYE          N/A     55  48  76 CALM      30.08S
GLENDALE       MOCLDY    55  48  76 W6        30.09R
LUKE AFB       MOCLDY    54  48  81 N7        30.07R
DEER VALLEY    PTCLDY    51  44  77 N5        30.07R
SCOTTSDALE     CLOUDY    53  44  71 N5        30.09R
MESA-FALCON    MOCLDY    54  41  62 W6        30.07
MESA-GATEWAY   CLOUDY    54  48  82 CALM      30.10R
CHANDLER       MOCLDY    55  50  82 VRB5      30.08R
$$

AZZ027-028-180200-
SOUTHWEST MARICOPA COUNTY AND PINAL COUNTY

CITY           SKY/WX    TMP DP  RH WIND       PRES   REMARKS
CASA GRANDE    CLOUDY    55  46  71 CALM      30.09R
GILA BEND      MOCLDY    56  51  82 NE2       30.09R
$$

AZZ503-504-507>509-180200-
SOUTHEAST ARIZONA

CITY           SKY/WX    TMP DP  RH WIND       PRES   REMARKS
TUCSON         LGT RAIN  50  48  93 N5        30.12R
DAVIS-MONTHAN  RAIN      50  48  93 NW5       30.10R
RYAN FIELD       N/A     52  52 100 NW9       30.10S
NOGALES        MOCLDY    48  45  89 CALM      30.11R
SIERRA VISTA   MOCLDY    48  37  66 SW18      30.09R
DOUGLAS        MOCLDY    48  39  71 SE5       30.11R
SAFFORD        LGT RAIN  48  44  86 NW7       30.08R
$$

AZZ020-021-025-026-031-180200-
SOUTHWEST ARIZONA

CITY           SKY/WX    TMP DP  RH WIND       PRES   REMARKS
YUMA           PTCLDY   N/A N/A N/A S6        30.06R
$$

CAZ031-033-041-043-047-048-061-180200-
SOUTHERN CALIFORNIA

CITY           SKY/WX    TMP DP  RH WIND       PRES   REMARKS
DOWNTOWN L.A.  CLOUDY    60  44  55 CALM      30.06R
L.A. AIRPORT   CLOUDY    60  45  57 W8        30.06S
SAN DIEGO      MOCLDY    62  44  51 W9        30.12R
BURBANK        CLOUDY    59  42  53 W6        30.06R
ONTARIO        CLOUDY    57  46  66 W12       30.06R
RIVERSIDE      CLOUDY    58  45  62 VRB3      30.06R
PALM SPRINGS   MOCLDY    57  47  69 S5        30.07R
EL CENTRO NAS  MOCLDY    57  53  86 N7        30.05R
IMPERIAL       CLEAR     61  51  70 E5        30.04S
BLYTHE         PTCLDY    56  51  84 E3        30.05R
NEEDLES        CLOUDY    55  45  68 N8        30.06R
$$

NVZ020-UTZ003-180200-
SOUTHERN NEVADA-UTAH

CITY           SKY/WX    TMP DP  RH WIND       PRES   REMARKS
LAS VEGAS      CLOUDY    52  43  71 S5        29.99R
SALT LAKE CITY MOCLDY    36  29  75 CALM      30.00R
$$

NMZ009-TXZ055-180200-
NEW MEXICO-WEST TEXAS

CITY           SKY/WX    TMP DP  RH WIND       PRES   REMARKS
ALBUQUERQUE    CLOUDY    39  36  89 S7        30.04R WCI  34
EL PASO        PTCLDY    55  33  43 W16       30.05R
$$


........................KEY........................
SKY/WX - SKY CONDITION/WEATHER
TMP    - TEMPERATURE IN FAHRENHEIT
DP     - DEW POINT IN FAHRENHEIT
RH     - RELATIVE HUMIDITY IN PERCENT
WIND   - DIRECTION AND SPEED IN MILES PER HOUR (MPH)
VRB    - VARIABLE WIND DIRECTION
PRES   - MEAN SEA LEVEL PRESSURE IN INCHES OF MERCURY
         F - FALLING PRESSURE   R - RISING PRESSURE
         S - STEADY PRESSURE
VSB    - VISIBILITY IN MILES
HX     - HEAT INDEX IN FAHRENHEIT
WCI    - WIND CHILL INDEX IN FAHRENHEIT
TC     - TEMPERATURE IN CELSIUS WHICH IS ALSO KNOWN AS
         TEMPERATURE IN CENTIGRADE
AFB    - AIR FORCE BASE
         LUKE AFB IS LUKE AIR FORCE BASE
         DAVIS-MONTHAN IS DAVIS-MONTHAN AIR FORCE BASE
NAS    - NAVAL AIR STATION
         EL CENTRO NAS IS EL CENTRO NAVAL AIR STATION
N/A    - NOT AVAILABLE



USA.gov is the U.S. government's official web portal to all federal, state and local government web resources and services.